Wind_Speed
10 10 9 9 8 6 5 7 10 11 10 9 8 7 5 6 9 6 3 2 2 1 5 5 5 6 2 1 1 1 3 2 4 4 6 11 10 14 18 10 10 8 11 17 12
8 10 10 9 8 8 10 11 11 11 11 10 8 7 6 8 7 5 3 3 2 3 2 4 3 1 3 3 3 3 3 6 5 2 4 10 8 16 12 20 19 17 17 7 14
7 8 8 9 10 12 12 12 12 12 11 10 9 7 8 9 6 1 2 3 2 2 1 4 2 4 3 5 4 5 5 4 12 15 10 8 11 10 11 7 19 17 14 7 16
8 9 12 14 13 13 13 13 12 12 11 9 8 8 10 6 4 1 1 1 1 4 4 4 4 3 3 3 6 3 10 13 10 17 8 6 13 11 18 29 24 22 17 15 13
10 11 12 13 13 13 13 13 11 11 10 8 7 8 9 3 1 1 1 2 4 7 5 2 5 4 2 5 7 3 7 11 15 24 20 16 14 12 21 30 26 22 18 16 17
10 11 11 11 12 12 12 12 11 10 9 7 6 9 4 2 1 1 1 2 3 5 3 2 2 3 5 5 2 6 12 18 20 25 18 14 17 8 17 26 26 19 16 13 17
9 9 9 9 10 10 10 9 9 9 8 7 6 7 5 5 3 1 1 3 3 2 5 4 4 3 5 5 10 11 7 8 16 14 6 4 4 6 16 11 11 9 9 15 22
7 7 8 8 9 8 8 8 8 8 8 7 7 5 3 2 1 2 1 3 6 4 3 4 4 5 4 8 7 3 1 3 7 5 0 3 9 7 12 15 17 21 21 20 21
6 6 6 6 7 7 7 8 8 8 8 8 6 5 2 3 1 2 1 2 3 3 7 4 4 2 3 1 5 4 3 4 9 12 0 3 10 9 11 15 17 16 9 27 26
6 6 6 7 7 7 8 9 11 11 9 8 7 2 2 2 2 2 4 3 2 3 7 4 2 2 4 4 3 4 5 4 6 6 9 8 9 12 25 15 17 30 29 30 33
6 6 7 7 8 10 12 9 5 5 4 3 2 8 5 1 3 2 7 4 4 4 1 4 4 4 3 1 3 4 3 7 7 7 6 7 10 18 21 26 28 29 30 29 29
6 6 7 8 9 10 6 4 4 5 6 8 7 3 1 2 1 1 5 3 3 3 7 4 3 4 1 3 4 6 6 8 7 7 7 8 14 13 22 21 24 23 26 30 30
6 7 8 11 12 7 6 3 6 7 4 3 4 2 1 2 4 5 5 5 3 3 4 3 3 4 2 5 6 4 3 4 5 7 5 3 7 5 8 20 24 26 27 29 29
6 10 13 12 8 5 2 2 3 4 4 1 1 1 2 3 2 4 7 4 4 2 5 5 2 4 5 3 5 4 3 5 7 6 2 6 4 5 6 8 13 25 29 27 28
8 12 11 5 8 2 1 1 3 5 2 1 1 1 1 1 2 3 6 3 3 4 4 6 2 2 2 1 3 7 5 7 8 4 2 4 2 3 8 8 9 18 26 26 22
9 10 8 7 3 2 0 2 4 4 1 2 2 4 1 3 3 2 5 6 3 3 3 8 7 3 2 3 4 6 6 12 4 4 2 6 7 1 3 3 7 13 22 22 26
10 9 6 5 2 1 1 2 4 4 1 2 2 4 3 3 2 3 5 8 5 6 7 7 3 4 7 5 8 11 6 4 5 2 5 5 4 4 5 9 11 13 16 18 22
9 7 5 3 3 2 2 4 3 4 5 1 1 4 3 5 3 4 5 3 9 5 2 4 4 3 6 3 2 4 2 3 4 3 4 13 4 6 9 15 15 16 18 16 20
11 9 8 2 2 2 2 5 2 3 4 5 7 2 2 1 3 5 5 3 4 6 4 6 4 4 5 2 2 4 3 4 1 4 1 4 4 2 6 5 14 17 23 18 19
8 4 9 4 3 3 4 5 3 4 5 4 2 2 3 3 3 5 3 5 3 7 9 3 5 4 2 2 4 3 3 4 3 3 5 6 4 4 6 7 11 19 25 25 10
5 1 7 4 3 5 4 3 3 6 5 4 4 4 5 4 4 5 3 4 6 5 11 4 2 7 6 3 1 4 3 2 2 4 5 4 6 6 3 12 22 37 42 38 22
3 3 3 5 3 6 3 2 4 3 6 6 4 6 3 4 3 3 3 3 3 3 3 4 2 4 7 4 4 3 2 2 4 6 3 3 9 8 14 29 34 30 29 22 15
3 4 6 5 3 2 4 4 7 3 5 4 3 5 3 2 2 3 5 7 5 3 2 3 2 4 5 5 6 4 4 3 2 2 6 3 9 11 32 31 34 33 23 16 15
2 2 6 9 8 7 5 3 2 4 3 5 3 1 0 1 2 2 2 6 6 5 6 3 2 6 6 4 2 7 5 6 3 2 10 15 22 22 21 23 29 22 18 21 22
4 3 3 2 7 9 5 4 4 1 2 1 2 5 3 1 2 2 2 3 5 7 7 5 3 4 10 9 10 15 17 14 13 13 10 25 22 20 15 8 11 21 25 26 28
4 3 5 3 3 6 3 2 4 2 2 2 2 6 3 2 1 2 2 1 3 5 3 2 3 3 9 9 12 15 14 18 17 16 16 18 18 8 20 21 19 25 25 28 33
8 6 2 1 3 3 1 2 3 7 2 5 5 3 1 2 2 5 6 7 5 1 0 1 0 3 5 5 10 8 5 2 3 3 6 12 15 4 8 17 21 27 28 30 29
Wind_Direction
226 233 236 232 241 240 189 151 148 148 148 140 140 140 140 130 125 109 120 201 302 214 71 68 54 33 27 210 209 220 56 264 264 333 281 341 13 341 333 338 322 292 302 276 225
202 217 213 216 209 177 149 144 146 143 142 137 139 138 143 145 136 95 297 271 236 197 156 107 110 214 259 222 187 148 135 230 199 285 294 324 351 323 326 313 295 292 298 250 214
178 172 161 162 160 146 140 145 146 144 140 138 139 141 144 146 145 107 326 223 229 233 306 89 86 302 264 193 209 191 201 218 290 293 301 309 319 310 321 292 280 301 297 290 219
143 139 141 141 138 137 144 147 148 144 136 137 141 143 144 140 147 277 289 161 116 107 73 22 311 262 231 237 235 221 244 262 278 308 293 283 296 279 272 270 290 291 299 311 235
121 127 133 136 140 145 149 150 149 141 136 138 138 143 142 106 94 128 103 106 101 91 25 70 6 342 322 334 341 251 276 288 293 296 293 294 277 265 272 285 290 290 284 285 293
118 126 133 140 144 150 152 152 147 139 135 129 129 142 112 139 97 57 98 87 87 126 85 329 11 296 285 271 261 292 305 302 300 282 278 264 267 277 276 306 296 277 284 276 282
123 129 134 139 146 152 151 150 142 134 128 120 121 137 93 143 224 275 176 54 350 112 153 247 266 272 325 295 311 301 305 313 277 274 219 213 7 230 308 2 10 326 357 341 328
126 134 140 143 148 152 150 145 138 129 124 118 116 107 93 51 287 151 59 15 342 353 314 302 313 283 250 302 318 265 60 338 309 41 285 165 268 258 284 298 307 309 304 308 58
125 129 132 135 139 143 137 130 121 115 116 118 107 66 71 89 51 7 238 198 268 357 342 354 312 271 303 32 350 4 284 299 331 337 241 192 268 266 277 283 295 302 348 79 57
126 129 128 130 130 129 126 122 115 108 103 106 104 110 142 184 351 62 36 18 1 309 284 255 227 32 5 72 255 291 320 297 279 301 338 314 287 303 309 311 60 82 83 65 54
116 121 128 133 135 134 124 114 110 93 61 115 112 103 101 239 63 29 339 331 292 288 315 220 55 248 256 182 232 257 276 291 280 299 15 317 312 326 359 78 76 71 66 61 53
115 122 129 130 128 129 98 74 113 129 94 82 100 56 245 221 146 61 5 333 335 291 316 18 243 188 259 326 331 312 296 291 294 3 10 318 302 57 68 78 82 75 65 57 44
117 120 127 122 127 115 93 114 145 143 109 68 103 50 73 49 59 22 355 327 245 291 354 201 246 163 36 349 326 305 299 319 286 330 300 325 339 105 79 93 80 66 65 54 43
124 127 126 124 105 90 6 111 154 168 86 207 201 9 54 122 72 46 6 11 327 336 341 271 225 67 40 3 32 322 333 331 324 22 310 67 281 177 128 86 67 55 49 49 42
135 145 136 112 132 161 342 84 159 167 63 341 75 145 246 92 133 331 32 23 291 322 60 260 2 33 23 20 5 251 323 295 277 232 338 336 150 330 105 59 33 44 37 36 32
143 149 149 139 125 97 95 149 139 53 145 68 90 338 269 26 73 355 80 7 346 309 208 232 267 17 94 333 284 314 345 299 297 138 186 252 196 229 27 85 41 27 30 30 18
145 142 153 164 132 127 140 125 56 93 264 70 53 357 2 348 61 40 83 34 41 16 2 333 35 90 49 9 359 24 29 338 8 13 216 351 0 136 125 76 51 15 16 19 7
130 132 141 183 207 187 154 61 85 66 53 294 35 307 72 13 359 336 107 65 30 25 324 337 330 40 343 111 251 301 144 130 285 297 282 340 232 196 134 84 46 32 7 4 3
108 84 45 53 168 167 150 58 152 8 340 360 329 325 98 101 22 38 58 70 46 31 48 8 283 2 65 69 80 327 26 192 279 276 306 242 75 198 137 65 26 8 3 348 349
115 117 18 64 115 122 72 116 99 30 341 341 333 34 86 26 46 28 116 0 81 41 16 12 310 305 328 304 342 128 197 22 4 290 283 282 254 197 13 347 349 350 347 336 0
104 56 6 56 60 63 105 91 118 50 33 46 19 31 68 41 357 352 74 22 36 341 349 22 111 295 11 54 156 352 355 7 173 165 211 278 255 165 62 352 343 345 338 337 345
72 64 62 338 72 58 66 66 101 18 30 49 73 46 56 50 353 53 107 78 86 3 19 2 140 272 255 316 142 155 210 153 125 279 254 151 264 38 3 338 335 318 320 326 337
71 65 43 6 99 68 77 58 59 41 18 29 82 34 11 59 85 62 94 143 115 88 102 15 341 336 333 0 357 35 328 348 289 155 208 165 261 333 330 318 309 309 309 321 335
95 49 47 60 79 122 127 137 100 45 52 58 112 240 36 205 99 108 85 196 192 136 150 117 206 193 212 221 293 274 290 306 253 167 285 250 286 300 301 297 305 321 345 340 333
56 76 57 4 20 72 85 128 140 140 87 76 84 98 100 87 6 213 94 75 188 162 154 138 241 238 271 284 293 284 286 278 256 252 240 283 279 284 295 308 0 338 331 334 328
83 86 80 69 48 90 47 51 132 117 138 205 114 132 112 163 137 248 77 139 217 228 163 161 273 319 285 268 269 278 284 283 267 263 265 274 287 304 318 329 334 325 322 319 315
88 90 92 120 339 82 242 104 100 115 38 60 94 100 283 149 292 270 259 255 245 155 57 314 189 5 266 326 311 301 243 247 269 236 276 294 294 293 310 314 317 314 310 306 308
Height
1523 1525 1526 1527 1528 1529 1530 1532 1534 1536 1538 1539 1541 1543 1544 1545 1545 1546 1547 1548 1548 1549 1549 1548 1549 1549 1550 1550 1551 1552 1561 1567 1555 1550 1546 1539 1539 1536 1536 1535 1534 1532 1532 1530 1529
1521 1523 1524 1525 1526 1528 1529 1532 1534 1536 1538 1539 1541 1542 1544 1545 1545 1545 1548 1547 1548 1548 1548 1547 1548 1549 1549 1549 1550 1551 1563 1555 1544 1543 1542 1539 1539 1539 1537 1534 1531 1530 1530 1529 1529
1520 1521 1522 1524 1526 1528 1530 1532 1534 1536 1537 1539 1541 1542 1543 1544 1546 1546 1546 1547 1547 1547 1547 1547 1548 1548 1548 1548 1548 1548 1554 1543 1540 1540 1539 1538 1537 1538 1537 1533 1529 1530 1530 1530 1529
1520 1521 1523 1525 1527 1529 1531 1534 1535 1537 1538 1539 1541 1542 1543 1545 1549 1546 1546 1547 1546 1547 1547 1547 1547 1547 1547 1547 1544 1546 1541 1541 1539 1539 1537 1536 1536 1534 1534 1528 1528 1528 1529 1530 1529
1522 1523 1525 1526 1528 1530 1532 1534 1536 1537 1538 1540 1541 1542 1543 1545 1546 1546 1546 1546 1546 1546 1547 1546 1546 1546 1547 1546 1543 1542 1539 1538 1536 1535 1535 1534 1533 1532 1527 1524 1525 1525 1526 1527 1528
1525 1526 1527 1528 1529 1531 1533 1535 1536 1538 1539 1540 1541 1542 1544 1545 1545 1545 1546 1545 1546 1546 1546 1546 1547 1547 1546 1544 1543 1539 1538 1535 1533 1528 1531 1530 1526 1530 1522 1523 1521 1522 1524 1525 1526
1526 1527 1529 1530 1531 1533 1534 1536 1537 1538 1540 1541 1542 1543 1544 1546 1545 1545 1546 1546 1546 1546 1546 1545 1546 1546 1546 1543 1541 1539 1539 1535 1525 1524 1526 1525 1529 1526 1522 1521 1519 1521 1523 1523 1525
1528 1529 1530 1531 1532 1534 1535 1536 1538 1539 1540 1542 1542 1543 1544 1545 1545 1546 1545 1546 1546 1545 1545 1545 1546 1545 1545 1543 1540 1539 1540 1547 1530 1526 1528 1528 1538 1521 1521 1520 1519 1520 1521 1522 1521
1530 1530 1531 1532 1533 1535 1536 1537 1538 1540 1541 1542 1544 1544 1546 1546 1546 1545 1546 1546 1546 1546 1545 1545 1546 1545 1544 1546 1553 1545 1554 1545 1541 1529 1528 1530 1530 1518 1518 1518 1517 1517 1520 1521 1520
1530 1531 1532 1533 1534 1536 1537 1538 1539 1541 1543 1544 1545 1548 1548 1547 1546 1546 1546 1546 1546 1545 1545 1546 1545 1547 1548 1553 1568 1558 1555 1547 1548 1533 1530 1531 1525 1516 1513 1516 1517 1519 1521 1522 1522
1531 1532 1533 1534 1535 1536 1538 1539 1543 1545 1544 1544 1545 1546 1546 1547 1547 1547 1547 1546 1545 1545 1546 1544 1551 1556 1548 1545 1544 1546 1547 1550 1540 1532 1534 1534 1528 1519 1513 1514 1521 1523 1524 1524 1524
1532 1533 1534 1535 1537 1538 1539 1539 1541 1544 1545 1545 1546 1546 1546 1547 1547 1547 1547 1547 1546 1547 1543 1548 1553 1543 1541 1540 1541 1543 1547 1547 1536 1532 1534 1534 1530 1531 1525 1527 1528 1528 1526 1524 1524
1532 1533 1535 1537 1538 1539 1540 1540 1541 1543 1545 1547 1547 1547 1547 1548 1547 1547 1547 1546 1545 1545 1545 1549 1544 1540 1540 1543 1544 1544 1545 1546 1547 1539 1534 1532 1537 1534 1533 1530 1530 1530 1530 1525 1524
1533 1534 1536 1537 1541 1540 1541 1541 1541 1543 1552 1551 1548 1548 1548 1547 1548 1548 1547 1548 1545 1546 1544 1544 1539 1541 1544 1546 1546 1550 1539 1540 1542 1550 1557 1539 1566 1536 1536 1534 1533 1532 1529 1526 1524
1534 1535 1537 1538 1540 1540 1542 1541 1542 1544 1567 1550 1548 1549 1547 1548 1549 1548 1548 1546 1547 1547 1550 1549 1542 1542 1544 1545 1543 1547 1539 1541 1541 1548 1549 1544 1555 1542 1534 1540 1539 1535 1532 1529 1527
1534 1536 1537 1539 1540 1541 1541 1541 1543 1553 1559 1550 1547 1547 1547 1546 1548 1548 1549 1548 1548 1546 1544 1544 1538 1539 1542 1541 1541 1540 1542 1538 1535 1547 1562 1541 1540 1545 1544 1544 1542 1537 1534 1532 1530
1535 1537 1539 1539 1541 1541 1541 1542 1553 1562 1546 1553 1551 1549 1549 1551 1549 1549 1556 1559 1563 1564 1561 1548 1543 1542 1542 1546 1542 1546 1553 1567 1556 1559 1558 1532 1534 1545 1546 1543 1541 1539 1536 1533 1531
1536 1538 1539 1540 1540 1540 1541 1544 1552 1549 1553 1550 1550 1550 1553 1553 1552 1551 1556 1565 1566 1566 1570 1568 1560 1546 1546 1550 1553 1553 1553 1571 1571 1570 1561 1535 1543 1544 1541 1540 1539 1538 1536 1532 1529
1538 1538 1539 1539 1540 1541 1542 1558 1565 1558 1557 1557 1553 1554 1555 1555 1556 1555 1565 1569 1573 1572 1577 1577 1561 1550 1548 1548 1550 1554 1562 1558 1566 1562 1566 1551 1537 1542 1537 1535 1534 1534 1532 1529 1525
1539 1539 1539 1539 1540 1541 1543 1558 1561 1559 1559 1557 1559 1555 1562 1561 1561 1561 1566 1572 1573 1573 1573 1573 1578 1556 1552 1549 1549 1552 1553 1567 1574 1576 1576 1554 1537 1533 1535 1534 1531 1530 1527 1524 1522
1540 1540 1541 1540 1541 1542 1557 1560 1560 1560 1559 1560 1561 1559 1562 1566 1563 1564 1570 1576 1575 1574 1573 1574 1578 1567 1556 1556 1561 1562 1564 1563 1567 1572 1579 1574 1551 1532 1530 1528 1523 1516 1515 1516 1518
1540 1542 1543 1543 1543 1548 1558 1557 1559 1561 1560 1561 1562 1564 1566 1566 1567 1565 1569 1573 1575 1576 1578 1579 1582 1585 1568 1558 1556 1558 1561 1564 1588 1573 1573 1590 1545 1522 1525 1528 1526 1526 1523 1520 1518
1541 1543 1544 1543 1553 1559 1559 1561 1562 1562 1563 1562 1565 1566 1567 1568 1571 1568 1571 1575 1575 1576 1579 1580 1585 1597 1567 1565 1559 1563 1562 1564 1568 1576 1579 1591 1536 1521 1525 1527 1524 1521 1520 1517 1513
1543 1546 1546 1545 1547 1552 1558 1562 1566 1565 1565 1565 1566 1567 1567 1568 1569 1571 1571 1575 1574 1575 1577 1578 1583 1585 1590 1571 1572 1571 1566 1568 1571 1598 1564 1551 1541 1533 1532 1526 1522 1519 1517 1513 1509
1544 1550 1551 1557 1554 1553 1554 1558 1564 1567 1566 1566 1567 1568 1569 1570 1571 1571 1570 1573 1575 1576 1577 1578 1583 1578 1572 1569 1568 1563 1560 1561 1563 1561 1567 1537 1540 1534 1529 1525 1521 1518 1513 1509 1505
1547 1551 1553 1554 1555 1555 1557 1560 1561 1565 1567 1566 1566 1567 1569 1571 1571 1573 1573 1573 1575 1577 1575 1577 1583 1577 1573 1565 1563 1558 1553 1552 1550 1548 1545 1539 1531 1528 1524 1521 1517 1514 1509 1505 1500
1550 1552 1552 1556 1555 1557 1560 1559 1562 1563 1567 1566 1567 1568 1569 1570 1571 1571 1572 1572 1573 1576 1577 1579 1582 1585 1587 1565 1562 1564 1546 1542 1540 1539 1539 1536 1528 1524 1520 1516 1514 1508 1505 1500 1495